Hauptseite
METAR-TAF:

METAR-TAF

Flughäfen :

Passo della Cisa, Italien

Breite: 44-26N, Länge: 009-56E, Höhe: 1039 m

Beobachtung

Neuester Wetterbericht von vor 1 Stunde und 14 Minuten, um 08:55 UTC
Wind 16 kt aus Nord/Nordost
Temperatur 14°C
Luftfeuchtigkeit 41%
Luftdruck 1029 hPa
Sichtweite 10 km oder mehr
keine Wolken unter 1500 m und keine Kumulonimbus oder Gewitterwolken

METAR: LIMT 190855Z 03016KT CAVOK 14/01 Q1029 RMK SKC MON LIB VAL NIL VIS MIN 9999

Zeit: 12:09 (10:09 UTC)


TAF: fehlend

Wetterbeobachtungen und Prognosen von mehr als 4000 Flughäfen (METAR und TAF Bericht).

Die verfügbaren Stationen werden durch gelbe und rote Markierungen auf der Karte dargestellt.

Führen Sie die Maus auf sie, um den Namen der Station zu sehen.

Darauf klicken, um die Beobachtung von Wetterbeobachtungen und Prognosen zu sehen.

Um die Karte zu ändern : klicken Sie auf den grünen Tasten mit einem schwarzen Kreuz Zum Vergrößern, auf den grünen Button mit einem Gedankenstrich zu verkleinern, oder auf die grünen Pfeile für benachbarte Karten.


METAR-TAF: